• In Hungary
  • List of Countries
  • For 7 days
  • Water Temperature
  • Satellite Maps
  • Weather Map
  • News
  • Weather Widgets
  • user-avatar
    Login

    Hourly Weather Mazarron

    Today, 15 November, Thursday

    Time Temperature Precipitation Wind Pressure Humidity
    00:00 +15°C° 2.2 mm 5 mps 745 mmHg 86%
    01:00 +15°C° 2.2 mm 4 mps 745 mmHg 86%
    02:00 +15°C° 2.2 mm 4 mps 745 mmHg 86%
    03:00 +16°C° 2.2 mm 3 mps 745 mmHg 87%
    04:00 +16°C° 0.5 mm 3 mps 745 mmHg 87%
    05:00 +16°C° 0.5 mm 3 mps 744 mmHg 87%
    06:00 +16°C° 0.5 mm 3 mps 744 mmHg 88%
    07:00 +17°C° 0.2 mm 3 mps 745 mmHg 85%
    08:00 +17°C° 0.2 mm 3 mps 745 mmHg 82%
    09:00 +18°C° 0.2 mm 3 mps 745 mmHg 80%
    10:00 +19°C° 0.2 mm 4 mps 745 mmHg 75%
    11:00 +19°C° 0.2 mm 4 mps 745 mmHg 70%
    12:00 +20°C° 0.2 mm 4 mps 745 mmHg 65%
    13:00 +20°C° 0.5 mm 4 mps 745 mmHg 65%
    14:00 +20°C° 0.5 mm 4 mps 745 mmHg 66%
    15:00 +20°C° 0.5 mm 5 mps 745 mmHg 67%
    16:00 +19°C° 0.2 mm 4 mps 745 mmHg 71%
    17:00 +18°C° 0.2 mm 4 mps 745 mmHg 76%
    18:00 +18°C° 0.2 mm 4 mps 745 mmHg 80%
    19:00 +17°C° 0.1 mm 4 mps 746 mmHg 82%
    20:00 +17°C° 0.1 mm 4 mps 746 mmHg 83%
    21:00 +17°C° 0.1 mm 3 mps 746 mmHg 84%
    22:00 +17°C° 0.1 mm 3 mps 746 mmHg 85%
    23:00 +16°C° 0.1 mm 3 mps 746 mmHg 85%

    Tomorrow, 16 November, Friday

    Time Temperature Precipitation Wind Pressure Humidity
    00:00 +16°C° 0.1 mm 3 mps 746 mmHg 86%
    01:00 +16°C° 0 mm 3 mps 746 mmHg 86%
    02:00 +16°C° 0 mm 3 mps 746 mmHg 85%
    03:00 +16°C° 0 mm 3 mps 746 mmHg 85%
    04:00 +14°C° 0 mm 3 mps 746 mmHg 85%
    05:00 +14°C° 0 mm 3 mps 746 mmHg 85%
    06:00 +14°C° 0 mm 3 mps 746 mmHg 85%
    07:00 +16°C° 0.1 mm 3 mps 746 mmHg 82%
    08:00 +17°C° 0.1 mm 3 mps 746 mmHg 78%
    09:00 +17°C° 0.1 mm 3 mps 747 mmHg 74%
    10:00 +18°C° 0 mm 4 mps 746 mmHg 71%
    11:00 +19°C° 0 mm 4 mps 746 mmHg 67%
    12:00 +20°C° 0 mm 5 mps 746 mmHg 64%
    13:00 +20°C° 0.4 mm 5 mps 745 mmHg 65%
    14:00 +20°C° 0.4 mm 5 mps 745 mmHg 66%
    15:00 +20°C° 0.4 mm 5 mps 745 mmHg 67%
    16:00 +19°C° 0.7 mm 5 mps 745 mmHg 72%
    17:00 +18°C° 0.7 mm 4 mps 745 mmHg 78%
    18:00 +17°C° 0.7 mm 4 mps 745 mmHg 84%
    19:00 +17°C° 0.8 mm 4 mps 745 mmHg 84%
    20:00 +17°C° 0.8 mm 4 mps 745 mmHg 85%
    21:00 +17°C° 0.8 mm 4 mps 745 mmHg 86%
    22:00 +15°C° 0.9 mm 4 mps 745 mmHg 87%
    23:00 +15°C° 0.9 mm 4 mps 745 mmHg 88%

    Day after tomorrow, 17 November, Saturday

    Time Temperature Precipitation Wind Pressure Humidity
    00:00 +15°C° 0.9 mm 4 mps 745 mmHg 89%
    01:00 +15°C° 0.6 mm 4 mps 745 mmHg 89%
    02:00 +15°C° 0.6 mm 4 mps 745 mmHg 89%
    03:00 +15°C° 0.6 mm 4 mps 744 mmHg 90%
    04:00 +14°C° 0.2 mm 4 mps 744 mmHg 89%
    05:00 +14°C° 0.2 mm 4 mps 744 mmHg 89%
    06:00 +14°C° 0.2 mm 4 mps 744 mmHg 88%
    07:00 +15°C° 0 mm 4 mps 744 mmHg 84%
    08:00 +15°C° 0 mm 4 mps 744 mmHg 79%
    09:00 +17°C° 0 mm 4 mps 744 mmHg 74%
    10:00 +18°C° 0 mm 4 mps 744 mmHg 70%
    11:00 +19°C° 0 mm 3 mps 743 mmHg 66%
    12:00 +19°C° 0 mm 3 mps 743 mmHg 62%
    13:00 +19°C° 0 mm 4 mps 743 mmHg 63%
    14:00 +19°C° 0 mm 4 mps 742 mmHg 63%
    15:00 +19°C° 0 mm 4 mps 742 mmHg 63%
    16:00 +18°C° 0.1 mm 4 mps 742 mmHg 69%
    17:00 +17°C° 0.1 mm 3 mps 742 mmHg 76%
    18:00 +17°C° 0.1 mm 3 mps 741 mmHg 82%
    19:00 +16°C° 0.1 mm 3 mps 741 mmHg 83%
    20:00 +16°C° 0.1 mm 3 mps 741 mmHg 85%
    21:00 +16°C° 0.1 mm 3 mps 741 mmHg 86%
    22:00 +16°C° 0.1 mm 3 mps 741 mmHg 87%
    23:00 +14°C° 0.1 mm 3 mps 740 mmHg 87%

    18 November, Sunday

    Time Temperature Precipitation Wind Pressure Humidity
    00:00 +14°C° 0.1 mm 3 mps 740 mmHg 87%
    01:00 +14°C° 0.1 mm 3 mps 739 mmHg 87%
    02:00 +14°C° 0.1 mm 3 mps 739 mmHg 88%
    03:00 +14°C° 0.1 mm 3 mps 738 mmHg 88%
    04:00 +14°C° 0.1 mm 3 mps 738 mmHg 88%
    05:00 +14°C° 0.1 mm 4 mps 738 mmHg 88%
    06:00 +14°C° 0.1 mm 4 mps 737 mmHg 88%
    07:00 +14°C° 0.4 mm 4 mps 737 mmHg 88%
    08:00 +14°C° 0.4 mm 5 mps 737 mmHg 87%
    09:00 +14°C° 0.4 mm 5 mps 737 mmHg 86%
    10:00 +15°C° 0.4 mm 5 mps 737 mmHg 85%
    11:00 +15°C° 0.4 mm 5 mps 737 mmHg 84%
    12:00 +15°C° 0.4 mm 5 mps 737 mmHg 83%
    13:00 +15°C° 1.1 mm 4 mps 737 mmHg 83%
    14:00 +15°C° 1.1 mm 4 mps 736 mmHg 83%
    15:00 +15°C° 1.1 mm 4 mps 736 mmHg 83%
    16:00 +16°C° 0.6 mm 3 mps 736 mmHg 85%
    17:00 +16°C° 0.6 mm 3 mps 736 mmHg 86%
    18:00 +16°C° 0.6 mm 2 mps 737 mmHg 87%
    19:00 +15°C° 0.1 mm 2 mps 737 mmHg 88%
    20:00 +15°C° 0.1 mm 2 mps 737 mmHg 89%
    21:00 +14°C° 0.1 mm 2 mps 737 mmHg 90%
    22:00 +14°C° 0 mm 2 mps 737 mmHg 89%
    23:00 +14°C° 0 mm 2 mps 737 mmHg 89%

    19 November, Monday

    Time Temperature Precipitation Wind Pressure Humidity
    00:00 +13°C° 0 mm 2 mps 737 mmHg 89%
    01:00 +13°C° 0 mm 2 mps 737 mmHg 89%
    02:00 +13°C° 0 mm 2 mps 737 mmHg 89%
    03:00 +13°C° 0 mm 2 mps 737 mmHg 89%
    04:00 +12°C° 0 mm 2 mps 737 mmHg 89%
    05:00 +12°C° 0 mm 1 mps 737 mmHg 89%
    06:00 +12°C° 0 mm 1 mps 737 mmHg 89%
    07:00 +13°C° 0 mm 1 mps 738 mmHg 85%
    08:00 +14°C° 0 mm 1 mps 738 mmHg 81%
    09:00 +15°C° 0 mm 1 mps 738 mmHg 76%
    10:00 +16°C° 0 mm 1 mps 738 mmHg 71%
    11:00 +18°C° 0 mm 1 mps 738 mmHg 65%
    12:00 +19°C° 0 mm 1 mps 737 mmHg 60%
    13:00 +19°C° 0.1 mm 1 mps 737 mmHg 60%
    14:00 +19°C° 0.1 mm 1 mps 737 mmHg 60%
    15:00 +19°C° 0.1 mm 1 mps 737 mmHg 60%
    16:00 +18°C° 0.3 mm 1 mps 737 mmHg 65%
    17:00 +16°C° 0.3 mm 2 mps 737 mmHg 71%
    18:00 +16°C° 0.3 mm 2 mps 737 mmHg 76%
    19:00 +16°C° 0.5 mm 3 mps 738 mmHg 76%
    20:00 +16°C° 0.5 mm 3 mps 738 mmHg 76%
    21:00 +14°C° 0.5 mm 4 mps 739 mmHg 76%
    22:00 +14°C° 0.7 mm 4 mps 739 mmHg 75%
    23:00 +14°C° 0.7 mm 4 mps 739 mmHg 74%

    20 November, Tuesday

    Time Temperature Precipitation Wind Pressure Humidity
    00:00 +14°C° 0.7 mm 4 mps 739 mmHg 74%
    01:00 +14°C° 0.1 mm 4 mps 739 mmHg 72%
    02:00 +14°C° 0.1 mm 4 mps 739 mmHg 70%
    03:00 +14°C° 0.1 mm 4 mps 739 mmHg 68%
    04:00 +13°C° 0 mm 4 mps 740 mmHg 68%
    05:00 +13°C° 0 mm 4 mps 740 mmHg 68%
    06:00 +12°C° 0 mm 3 mps 740 mmHg 69%
    07:00 +13°C° 0 mm 3 mps 741 mmHg 65%
    08:00 +14°C° 0 mm 3 mps 742 mmHg 61%
    09:00 +16°C° 0 mm 3 mps 742 mmHg 58%
    10:00 +17°C° 0 mm 3 mps 742 mmHg 52%
    11:00 +18°C° 0 mm 3 mps 742 mmHg 47%
    12:00 +19°C° 0 mm 3 mps 743 mmHg 42%
    13:00 +20°C° 0 mm 4 mps 743 mmHg 41%
    14:00 +20°C° 0 mm 4 mps 743 mmHg 39%
    15:00 +20°C° 0 mm 4 mps 743 mmHg 38%
    16:00 +19°C° 0 mm 4 mps 743 mmHg 44%
    17:00 +18°C° 0 mm 3 mps 743 mmHg 50%
    18:00 +16°C° 0 mm 3 mps 744 mmHg 56%
    19:00 +16°C° 0 mm 2 mps 744 mmHg 57%
    20:00 +15°C° 0 mm 2 mps 745 mmHg 58%
    21:00 +15°C° 0 mm 2 mps 745 mmHg 60%
    22:00 +15°C° 0 mm 2 mps 745 mmHg 60%
    23:00 +14°C° 0 mm 2 mps 745 mmHg 60%
    Show more